Vorticity
12 11 10 10 9 8 8 9 9 9 10 10 11 11 11 10 9 8 8 7 6 6 6 6 5 5 5 5 5 5 6 6 6 6 6 5 5 6 7 8 8 9 9 9 9 9 8 8 8 8 8 7 7 7 6 6 6 6 6 7 7 7 8 8 10 10 11 12 13
11 11 10 9 9 8 8 8 9 9 10 10 11 11 11 11 10 9 8 7 6 6 5 5 5 5 5 5 5 5 6 6 6 6 5 5 5 5 6 7 8 8 9 8 8 8 8 8 7 7 7 6 6 6 6 6 5 5 5 6 6 6 7 7 8 8 9 10 10
11 10 10 9 9 8 8 8 8 9 10 10 11 11 11 11 10 10 9 8 7 6 5 5 5 5 5 5 5 6 6 6 6 6 5 5 4 5 6 7 7 8 9 8 8 8 7 7 7 6 6 5 5 5 5 6 5 4 4 5 5 5 6 6 6 6 7 7 8
10 10 9 9 8 8 8 8 8 9 9 10 11 11 11 11 11 10 9 8 7 6 5 4 5 5 5 5 5 6 6 6 6 6 5 4 4 4 5 6 7 8 8 8 8 7 7 6 6 6 5 4 4 4 4 4 4 4 4 4 4 4 4 5 5 5 5 6 6
10 10 9 8 8 8 8 8 8 9 9 10 10 11 12 12 11 10 10 9 8 6 6 5 5 5 5 5 5 5 6 6 6 6 6 5 4 4 5 6 6 7 7 7 7 7 6 6 6 5 4 4 4 4 4 4 4 3 3 3 3 3 4 4 4 4 4 5 5
10 9 9 8 8 8 8 8 8 8 9 10 10 11 11 12 11 11 10 9 8 7 6 5 4 4 5 5 5 5 6 6 6 6 6 5 4 4 4 5 6 6 6 7 7 6 6 5 5 4 4 4 3 3 3 3 3 3 3 3 3 3 3 3 3 3 3 4 4
9 9 8 8 8 8 8 8 8 8 9 9 10 10 11 12 12 11 10 10 9 7 6 5 5 4 4 4 5 5 6 6 6 7 6 5 4 4 4 4 5 6 6 6 6 6 5 5 4 4 3 3 3 3 3 3 3 3 2 3 2 2 2 2 2 2 3 3 4
9 9 8 8 8 8 8 8 8 8 9 9 10 10 11 12 12 12 11 10 9 8 7 6 5 4 4 4 5 5 5 6 7 7 7 6 5 4 4 4 4 5 6 6 6 5 5 5 4 3 3 2 2 2 2 3 3 3 3 2 2 2 2 2 2 2 2 3 3
9 9 8 8 8 8 8 8 8 8 9 9 10 10 10 11 12 12 12 11 10 9 7 6 5 4 4 4 4 5 5 6 6 7 7 6 5 4 4 4 4 4 5 5 5 5 4 4 4 3 3 2 2 2 3 3 3 3 3 3 3 3 3 2 2 2 2 2 3
10 9 8 8 8 8 8 8 8 8 8 9 10 10 10 11 11 11 11 11 10 10 8 7 5 4 4 4 4 5 5 6 6 7 7 7 6 5 4 4 4 4 4 4 5 5 4 4 4 3 3 2 2 2 3 3 3 3 3 3 3 3 3 3 3 3 3 3 3
10 10 9 8 8 8 8 8 8 8 8 9 9 10 10 11 11 11 11 12 11 10 9 7 6 5 4 4 4 5 5 5 6 7 7 7 6 5 4 4 4 4 4 4 4 4 4 4 3 3 2 2 2 2 2 3 3 3 3 3 3 3 3 3 3 3 3 3 3
11 10 9 9 8 8 8 8 8 8 8 9 9 10 10 10 11 11 12 11 11 10 9 8 6 5 4 4 4 5 5 5 6 7 7 8 7 6 5 4 4 3 4 4 4 4 4 4 3 3 2 2 2 2 2 2 3 3 3 4 4 4 4 4 3 3 3 3 3
11 10 10 9 8 8 8 8 8 8 8 8 9 9 10 10 11 11 11 11 11 11 10 9 7 6 5 4 4 4 5 5 5 6 7 8 8 7 6 5 4 3 3 3 4 4 4 4 3 3 2 2 2 2 2 2 2 3 3 3 4 4 4 4 4 4 4 3 3
11 10 10 9 8 8 8 7 7 8 8 8 9 9 10 10 11 11 11 11 11 11 10 9 8 6 5 4 4 4 5 5 5 6 7 8 8 8 7 6 4 4 3 3 3 4 4 4 3 3 2 2 2 2 2 2 2 2 3 3 3 3 3 3 4 4 4 4 4
11 10 10 10 9 8 8 7 7 8 8 8 9 9 10 10 10 11 11 12 11 11 10 10 8 7 6 4 4 4 5 5 5 6 6 7 8 8 8 7 5 4 4 3 3 3 3 4 3 3 3 2 2 2 2 2 2 2 2 3 3 3 3 4 4 4 4 4 4
11 11 10 10 9 8 8 7 7 7 8 8 9 9 9 10 10 11 11 12 12 11 10 10 9 7 6 5 4 4 5 5 5 5 6 7 8 8 8 8 6 5 4 4 3 3 3 3 3 3 3 2 2 2 2 2 2 2 2 2 3 3 3 3 4 4 4 4 4
11 11 10 10 9 8 8 7 7 7 7 8 8 9 9 10 10 10 11 11 12 11 11 10 9 8 7 6 5 4 4 5 5 5 6 6 8 8 9 8 7 6 5 4 4 3 3 3 3 3 3 2 2 2 2 2 2 2 2 2 2 3 3 3 4 4 4 4 4
11 11 11 10 10 9 8 7 7 7 7 8 8 8 9 10 10 10 11 11 11 11 11 11 10 8 7 6 6 5 4 5 5 5 6 6 7 8 9 9 8 7 6 5 4 4 3 3 3 3 3 3 3 2 2 2 2 2 2 2 2 2 3 3 4 4 4 4 4
12 12 11 10 10 9 8 8 7 7 7 7 8 8 9 9 10 10 10 11 11 11 11 11 10 9 8 7 6 5 5 5 5 5 6 6 7 8 9 9 9 8 7 6 5 4 4 4 4 3 3 3 3 3 2 2 2 2 2 2 2 2 3 3 3 4 4 4 4
13 12 12 11 11 10 9 8 8 7 7 7 7 8 8 9 10 10 10 11 11 11 11 11 10 10 9 7 6 6 5 5 5 5 6 6 6 7 8 9 9 9 8 7 6 5 5 4 4 4 4 3 3 3 3 3 3 3 3 3 3 3 3 3 3 4 4 4 5
13 13 13 12 11 10 10 9 8 8 7 7 7 8 8 9 9 10 10 10 11 11 11 11 11 10 9 8 7 6 6 6 5 6 6 6 6 7 8 8 9 9 9 8 7 6 6 5 4 4 4 4 4 3 3 3 3 3 3 3 3 3 3 3 3 4 4 4 5
13 13 13 13 12 11 11 10 9 8 8 7 7 7 8 8 9 10 10 10 10 11 11 11 11 10 10 9 8 7 6 6 6 6 6 6 6 7 7 8 9 9 9 9 8 8 7 6 5 5 4 4 4 4 4 3 3 3 3 3 3 4 4 3 3 4 4 4 5
12 13 13 13 13 12 12 11 10 9 8 8 7 7 8 8 9 9 10 10 10 10 11 11 11 10 10 9 8 7 7 6 6 6 6 6 6 7 7 8 8 9 9 9 9 8 8 7 6 6 5 5 5 4 4 4 4 4 4 4 4 4 4 4 4 4 4 4 5
12 12 13 13 13 13 12 12 11 10 9 8 8 7 7 8 8 9 9 10 10 10 11 11 11 11 10 10 8 8 7 6 6 6 6 6 6 7 7 8 8 9 9 9 9 9 8 7 7 6 6 6 5 5 4 4 4 4 4 4 4 4 4 4 4 4 4 4 5
13 12 12 13 13 13 13 12 12 11 10 9 8 8 8 8 8 8 9 9 10 10 10 11 11 11 10 10 9 8 7 6 6 6 6 6 7 7 7 8 8 9 9 9 9 9 9 8 7 7 6 6 6 5 5 5 4 4 4 5 5 5 5 5 5 5 5 4 5
14 13 12 12 13 13 13 13 12 12 11 10 9 8 8 8 8 8 9 9 10 10 10 11 11 11 11 10 9 8 8 7 6 6 7 7 7 7 7 8 8 8 9 9 9 9 9 8 8 7 7 6 6 6 5 5 5 5 5 5 5 6 6 6 6 5 5 5 5
16 15 13 12 12 13 13 14 13 13 12 11 10 9 8 8 8 8 8 9 10 10 10 10 11 11 11 10 10 9 8 7 7 6 7 7 7 7 8 8 8 8 8 9 9 9 9 9 8 8 7 7 6 6 6 5 5 5 5 6 6 6 6 6 6 6 5 5 6
17 17 15 13 12 12 13 14 14 13 13 12 10 10 9 8 8 8 8 9 10 10 10 10 11 11 11 11 10 9 8 8 7 7 7 7 7 7 8 8 8 8 8 8 9 9 9 9 8 8 7 7 6 6 6 5 5 5 5 6 6 6 7 7 7 6 6 6 6
16 18 17 14 13 12 12 13 13 14 13 13 12 10 10 9 8 8 8 9 9 10 10 10 11 11 11 11 10 9 8 8 7 7 7 7 7 7 8 8 8 8 8 8 8 8 8 8 8 8 7 7 6 6 6 6 5 5 6 6 6 7 7 7 7 7 7 7 7
13 16 18 17 14 13 12 12 13 13 14 13 12 12 10 10 9 9 8 8 9 9 10 10 11 11 11 11 10 10 9 8 8 7 7 7 7 7 7 8 8 8 8 8 8 8 8 8 8 7 7 7 6 6 6 6 6 6 6 6 7 7 8 8 8 8 8 8 7
8 13 17 18 16 14 12 12 12 13 14 14 13 13 12 11 10 9 9 8 9 9 10 10 10 11 11 11 10 10 9 8 8 7 7 7 7 7 7 7 7 7 8 8 8 8 7 7 7 7 6 6 6 6 6 5 6 6 6 7 7 8 8 8 8 8 8 8 8
6 8 13 16 16 15 14 13 12 13 13 14 14 14 13 12 11 10 9 8 9 9 10 10 10 11 11 11 10 10 9 8 8 8 7 7 7 7 7 7 7 7 7 7 7 7 7 7 6 6 6 6 6 6 5 6 6 6 7 7 8 8 8 8 8 8 8 8 8
7 5 7 11 14 15 14 13 13 12 13 14 14 14 14 13 12 10 10 9 9 9 10 10 11 11 11 11 11 10 9 9 8 8 8 7 7 7 7 7 7 7 7 7 7 6 6 6 6 6 6 6 6 6 6 6 6 7 7 8 8 8 8 8 8 8 8 8 9
10 6 4 5 9 12 14 14 13 13 13 13 14 15 15 14 13 12 11 10 9 9 10 10 11 11 11 11 11 11 10 9 8 8 8 8 7 7 7 7 7 6 6 6 6 6 6 6 6 6 6 6 6 6 6 6 7 7 8 8 8 8 8 8 8 8 8 9 9
14 9 5 3 5 8 11 13 13 13 12 12 13 14 15 15 14 13 12 10 10 10 10 10 11 11 12 12 11 11 10 10 9 8 8 8 7 7 7 6 6 6 6 6 6 6 6 6 6 6 6 6 6 6 6 6 7 7 8 8 8 8 8 8 8 8 9 9 9
16 14 10 5 3 4 8 11 13 13 12 12 13 14 15 16 15 14 13 11 10 10 10 10 11 11 12 12 12 11 11 10 10 9 8 8 7 7 7 6 6 6 6 6 6 6 6 6 6 6 6 6 6 6 7 7 7 7 7 8 8 8 8 8 8 9 9 9 10
16 16 14 10 6 4 5 8 11 12 12 12 12 13 14 15 15 15 14 12 11 10 10 10 11 11 12 12 12 11 11 10 10 9 9 8 8 7 7 6 6 6 6 6 6 6 6 6 6 6 6 6 7 7 7 7 7 7 7 8 8 8 8 8 9 9 9 10 10
13 15 16 15 11 7 6 7 10 11 12 11 11 12 13 14 15 15 14 13 12 11 10 10 10 11 11 12 11 11 11 10 10 9 9 8 8 7 7 6 6 6 6 6 6 6 6 7 7 7 7 7 7 7 7 7 7 7 7 7 8 8 8 8 9 9 10 10 10
10 13 15 16 14 11 8 7 9 10 11 11 11 11 12 13 14 14 14 13 12 11 10 10 10 10 11 11 11 11 11 11 10 10 9 8 8 7 7 6 6 6 6 6 6 6 7 7 7 7 7 7 7 7 7 7 7 7 7 7 8 8 8 9 9 10 10 10 10
8 10 12 13 14 14 12 10 9 10 11 11 10 10 11 12 13 14 14 13 12 11 10 9 10 10 11 11 11 11 11 11 10 10 9 8 8 8 7 7 6 6 6 6 6 7 7 7 7 7 7 7 7 7 7 7 7 7 7 7 8 8 8 9 9 10 10 10 10
6 8 9 10 11 13 13 12 11 11 11 11 10 10 10 11 12 13 13 13 13 12 10 10 10 10 10 11 11 11 11 11 10 10 9 9 8 8 8 7 7 6 6 6 6 7 7 7 7 7 7 7 7 7 7 7 7 7 7 8 8 8 8 9 9 10 10 10 10
Height
3033 3034 3034 3035 3036 3036 3037 3038 3039 3040 3041 3041 3042 3043 3044 3045 3046 3047 3048 3049 3049 3050 3051 3052 3052 3053 3053 3054 3054 3054 3055 3055 3056 3056 3056 3057 3057 3057 3057 3057 3057 3057 3057 3057 3057 3056 3056 3056 3056 3056 3056 3055 3055 3054 3054 3054 3053 3053 3052 3051 3051 3050 3049 3048 3047 3047 3046 3045 3044
3031 3032 3032 3033 3034 3035 3036 3037 3037 3038 3039 3040 3041 3042 3043 3044 3044 3045 3046 3047 3048 3049 3050 3050 3051 3051 3052 3052 3053 3053 3054 3054 3055 3055 3056 3056 3056 3056 3056 3056 3056 3056 3056 3056 3056 3056 3056 3056 3056 3056 3055 3055 3055 3054 3054 3053 3053 3052 3052 3051 3050 3050 3049 3048 3047 3047 3046 3045 3044
3029 3030 3030 3031 3032 3033 3034 3035 3036 3037 3038 3038 3039 3040 3041 3042 3043 3044 3045 3046 3047 3048 3049 3049 3050 3050 3051 3051 3052 3052 3053 3053 3054 3054 3055 3055 3055 3055 3056 3056 3056 3056 3056 3056 3056 3056 3056 3056 3056 3055 3055 3055 3054 3054 3054 3053 3053 3052 3051 3051 3050 3050 3049 3048 3048 3047 3046 3045 3044
3027 3028 3029 3029 3030 3031 3032 3033 3034 3035 3036 3037 3038 3039 3039 3040 3041 3042 3043 3044 3045 3046 3047 3048 3049 3049 3050 3050 3051 3051 3052 3052 3053 3054 3054 3054 3055 3055 3055 3055 3055 3055 3055 3055 3055 3055 3055 3055 3055 3055 3055 3054 3054 3054 3053 3053 3052 3052 3051 3051 3050 3050 3049 3048 3048 3047 3046 3045 3044
3026 3026 3027 3028 3029 3029 3030 3031 3032 3033 3034 3035 3036 3037 3038 3039 3040 3041 3042 3043 3044 3045 3046 3047 3047 3048 3049 3049 3049 3050 3051 3051 3052 3052 3053 3054 3054 3054 3054 3054 3055 3055 3055 3055 3055 3055 3055 3055 3055 3055 3054 3054 3054 3054 3053 3053 3052 3052 3051 3051 3050 3050 3049 3049 3048 3047 3046 3045 3044
3024 3024 3025 3026 3027 3028 3029 3029 3030 3031 3032 3034 3034 3035 3036 3037 3038 3039 3040 3041 3043 3044 3044 3045 3046 3047 3047 3048 3049 3049 3049 3050 3051 3051 3052 3053 3053 3054 3054 3054 3054 3054 3054 3054 3054 3054 3054 3054 3054 3054 3054 3054 3054 3054 3053 3053 3052 3052 3051 3050 3050 3050 3049 3049 3048 3047 3046 3045 3044
3022 3023 3024 3024 3025 3026 3027 3028 3029 3030 3031 3032 3033 3034 3034 3036 3037 3038 3039 3040 3041 3042 3043 3044 3045 3045 3046 3047 3047 3048 3049 3049 3050 3050 3051 3052 3052 3053 3053 3053 3054 3054 3054 3054 3054 3054 3054 3054 3054 3054 3054 3054 3054 3053 3053 3053 3052 3052 3051 3050 3050 3049 3049 3049 3048 3047 3046 3046 3045
3021 3021 3022 3023 3024 3024 3025 3026 3027 3028 3029 3030 3031 3032 3033 3034 3035 3036 3037 3038 3039 3040 3041 3042 3043 3044 3045 3045 3046 3047 3047 3048 3049 3049 3050 3051 3051 3052 3052 3052 3053 3053 3053 3053 3054 3054 3054 3054 3054 3054 3053 3053 3053 3053 3053 3053 3052 3052 3051 3050 3050 3049 3049 3049 3048 3047 3047 3046 3045
3019 3020 3020 3021 3022 3023 3024 3024 3025 3026 3027 3028 3029 3030 3031 3032 3033 3034 3035 3037 3038 3039 3040 3041 3042 3043 3043 3044 3045 3045 3046 3047 3048 3048 3049 3049 3050 3051 3051 3051 3052 3052 3052 3053 3053 3053 3053 3053 3053 3053 3053 3053 3053 3053 3053 3052 3052 3051 3051 3050 3050 3049 3049 3049 3048 3047 3047 3046 3045
3018 3019 3019 3020 3021 3021 3022 3023 3024 3025 3026 3026 3027 3029 3029 3030 3031 3033 3034 3035 3036 3037 3038 3039 3040 3041 3042 3043 3043 3044 3045 3045 3046 3047 3048 3048 3049 3049 3050 3050 3051 3051 3052 3052 3052 3052 3052 3052 3052 3053 3053 3053 3053 3052 3052 3052 3052 3051 3051 3050 3050 3049 3049 3048 3048 3047 3047 3046 3045
3017 3017 3018 3019 3019 3020 3021 3021 3022 3023 3024 3025 3026 3027 3028 3029 3030 3031 3032 3033 3034 3035 3036 3037 3039 3039 3040 3041 3042 3043 3044 3044 3045 3046 3046 3047 3048 3049 3049 3049 3050 3050 3050 3051 3051 3051 3052 3052 3052 3052 3052 3052 3052 3052 3052 3052 3051 3051 3051 3050 3049 3049 3049 3048 3048 3047 3047 3046 3045
3015 3016 3017 3017 3018 3019 3019 3020 3021 3021 3022 3023 3024 3025 3026 3027 3028 3029 3030 3031 3033 3034 3034 3036 3037 3038 3039 3040 3040 3041 3042 3043 3044 3044 3045 3046 3047 3047 3048 3048 3049 3049 3049 3050 3050 3050 3051 3051 3051 3051 3051 3051 3051 3052 3051 3051 3051 3051 3050 3050 3049 3049 3048 3048 3047 3047 3046 3046 3045
3014 3014 3015 3016 3016 3017 3018 3019 3019 3020 3021 3021 3022 3023 3024 3025 3026 3027 3028 3029 3031 3032 3033 3034 3035 3036 3037 3038 3039 3040 3041 3041 3042 3043 3044 3044 3045 3046 3047 3047 3048 3048 3048 3049 3049 3049 3050 3050 3050 3050 3050 3051 3051 3051 3051 3051 3050 3050 3050 3049 3049 3049 3048 3048 3047 3047 3046 3046 3045
3013 3013 3014 3014 3015 3015 3016 3017 3018 3018 3019 3020 3021 3021 3022 3024 3024 3025 3027 3028 3029 3030 3031 3032 3033 3034 3035 3036 3037 3038 3039 3040 3041 3042 3043 3043 3044 3045 3045 3046 3046 3047 3047 3048 3048 3049 3049 3049 3049 3049 3050 3050 3050 3050 3050 3050 3050 3050 3049 3049 3049 3048 3048 3047 3047 3047 3046 3046 3045
3011 3012 3012 3013 3013 3014 3014 3015 3016 3017 3017 3018 3019 3020 3021 3022 3023 3024 3025 3026 3027 3028 3029 3030 3031 3032 3034 3034 3035 3036 3037 3038 3039 3040 3041 3042 3043 3044 3044 3044 3045 3046 3046 3046 3047 3048 3048 3048 3049 3049 3049 3049 3049 3049 3049 3049 3049 3049 3049 3049 3048 3048 3048 3047 3047 3046 3046 3045 3045
3009 3010 3010 3011 3012 3012 3013 3014 3014 3015 3016 3017 3017 3018 3019 3020 3021 3022 3023 3024 3025 3026 3027 3029 3029 3031 3032 3033 3034 3035 3036 3037 3038 3039 3039 3040 3041 3042 3043 3043 3044 3044 3045 3045 3046 3046 3047 3047 3048 3048 3048 3048 3049 3049 3049 3049 3049 3049 3049 3048 3048 3048 3047 3047 3046 3046 3046 3045 3045
3008 3009 3009 3009 3010 3010 3011 3012 3012 3013 3014 3015 3016 3017 3018 3019 3019 3020 3021 3022 3023 3024 3025 3027 3028 3029 3030 3031 3032 3033 3034 3035 3036 3037 3038 3039 3040 3041 3041 3042 3043 3043 3044 3044 3044 3045 3046 3046 3046 3047 3047 3047 3048 3048 3048 3048 3048 3048 3048 3048 3047 3047 3047 3047 3046 3046 3045 3045 3044
3007 3007 3008 3008 3009 3009 3009 3010 3010 3011 3012 3013 3014 3015 3016 3017 3018 3019 3019 3020 3022 3023 3024 3025 3026 3027 3028 3029 3030 3031 3032 3034 3034 3035 3036 3037 3038 3039 3040 3041 3041 3042 3043 3043 3044 3044 3044 3045 3045 3046 3046 3046 3047 3047 3047 3047 3047 3047 3047 3047 3047 3047 3046 3046 3046 3045 3045 3045 3044
3005 3005 3006 3007 3007 3007 3008 3008 3009 3009 3010 3011 3012 3013 3014 3015 3016 3017 3018 3019 3020 3021 3022 3023 3024 3025 3026 3028 3029 3029 3031 3032 3033 3034 3035 3036 3037 3038 3039 3039 3040 3041 3041 3042 3042 3043 3043 3044 3044 3044 3045 3045 3046 3046 3046 3046 3046 3046 3046 3046 3046 3046 3046 3046 3045 3045 3045 3044 3044
3003 3004 3004 3005 3005 3006 3006 3007 3007 3008 3009 3009 3010 3011 3012 3013 3014 3015 3016 3017 3018 3019 3020 3021 3022 3024 3025 3026 3027 3028 3029 3030 3031 3032 3033 3034 3035 3036 3037 3038 3039 3039 3040 3040 3041 3042 3042 3043 3043 3044 3044 3044 3044 3045 3045 3045 3045 3046 3046 3046 3045 3045 3045 3045 3045 3045 3044 3044 3044
3002 3002 3003 3003 3004 3004 3005 3006 3006 3007 3007 3008 3009 3009 3010 3011 3012 3014 3014 3015 3016 3018 3019 3019 3021 3022 3023 3024 3025 3026 3027 3029 3029 3031 3032 3033 3034 3035 3036 3037 3037 3038 3039 3039 3040 3040 3041 3041 3042 3042 3043 3043 3044 3044 3044 3044 3044 3045 3045 3045 3045 3045 3045 3044 3044 3044 3044 3044 3043
3000 3000 3001 3002 3002 3003 3004 3004 3005 3005 3006 3006 3007 3008 3009 3009 3010 3012 3013 3014 3014 3016 3017 3018 3019 3020 3021 3022 3024 3024 3026 3027 3028 3029 3030 3031 3032 3033 3034 3035 3036 3037 3037 3038 3039 3039 3040 3040 3041 3041 3042 3042 3042 3043 3043 3044 3044 3044 3044 3044 3044 3044 3044 3044 3044 3044 3043 3043 3043
2998 2999 2999 3000 3001 3002 3003 3003 3004 3004 3004 3005 3005 3006 3007 3008 3009 3010 3011 3012 3013 3014 3015 3016 3017 3019 3019 3021 3022 3023 3024 3025 3026 3028 3029 3030 3031 3032 3033 3034 3034 3035 3036 3036 3037 3038 3039 3039 3039 3040 3040 3041 3041 3042 3042 3043 3043 3043 3043 3043 3043 3043 3043 3043 3043 3043 3043 3043 3042
2996 2997 2998 2998 2999 3000 3001 3002 3002 3003 3003 3004 3004 3004 3005 3006 3007 3008 3009 3010 3011 3012 3013 3014 3015 3017 3018 3019 3020 3021 3023 3024 3025 3026 3027 3028 3029 3030 3031 3032 3033 3034 3034 3035 3036 3037 3037 3038 3038 3039 3039 3040 3040 3041 3041 3042 3042 3042 3042 3042 3042 3042 3042 3042 3042 3042 3042 3042 3042
2994 2995 2996 2997 2998 2998 2999 3000 3001 3001 3002 3002 3003 3003 3003 3004 3005 3006 3007 3008 3009 3010 3011 3013 3014 3015 3016 3017 3019 3020 3021 3022 3023 3024 3025 3027 3028 3029 3030 3031 3031 3032 3033 3034 3034 3035 3036 3037 3037 3038 3038 3039 3039 3040 3040 3040 3041 3041 3041 3041 3041 3041 3041 3041 3041 3041 3041 3041 3041
2993 2993 2994 2995 2996 2996 2997 2998 2999 2999 3000 3001 3001 3002 3002 3003 3003 3004 3005 3006 3007 3009 3010 3011 3012 3013 3014 3016 3017 3018 3019 3021 3022 3023 3024 3025 3026 3027 3028 3029 3030 3031 3032 3032 3033 3034 3034 3035 3036 3036 3037 3038 3038 3039 3039 3039 3040 3040 3040 3040 3040 3040 3040 3040 3040 3040 3040 3040 3040
2991 2992 2992 2993 2994 2994 2995 2996 2997 2998 2998 2999 3000 3000 3001 3001 3002 3003 3004 3005 3006 3007 3008 3009 3010 3012 3013 3014 3015 3017 3018 3019 3020 3021 3023 3024 3024 3026 3027 3028 3029 3029 3030 3031 3032 3033 3033 3034 3034 3035 3036 3036 3037 3037 3038 3038 3039 3039 3039 3039 3039 3039 3039 3039 3039 3039 3039 3039 3039
2989 2990 2991 2991 2992 2993 2994 2994 2995 2996 2997 2997 2998 2999 2999 3000 3000 3001 3002 3003 3004 3005 3006 3008 3009 3010 3011 3013 3014 3015 3016 3017 3019 3020 3021 3022 3023 3024 3025 3026 3027 3028 3029 3030 3030 3031 3032 3033 3033 3034 3034 3035 3036 3036 3037 3037 3038 3038 3038 3038 3039 3039 3039 3039 3039 3039 3039 3039 3039
2988 2988 2989 2990 2990 2991 2992 2992 2993 2994 2995 2996 2996 2997 2998 2999 2999 3000 3000 3001 3003 3004 3005 3006 3007 3008 3009 3011 3012 3013 3014 3016 3017 3018 3019 3021 3022 3023 3024 3025 3026 3027 3028 3028 3029 3030 3031 3031 3032 3033 3033 3034 3034 3035 3036 3036 3036 3037 3037 3037 3037 3038 3038 3038 3038 3038 3038 3038 3038
2986 2987 2987 2988 2989 2989 2990 2990 2991 2992 2993 2994 2995 2996 2996 2997 2998 2999 2999 3000 3001 3002 3003 3004 3005 3007 3008 3009 3010 3012 3013 3014 3015 3017 3018 3019 3020 3021 3023 3024 3024 3025 3026 3027 3028 3029 3029 3030 3031 3031 3032 3033 3033 3034 3034 3035 3035 3036 3036 3036 3036 3036 3037 3037 3037 3037 3037 3037 3037
2984 2985 2985 2986 2987 2988 2988 2989 2989 2990 2991 2992 2993 2994 2995 2996 2996 2997 2998 2998 2999 3000 3001 3002 3004 3005 3006 3007 3009 3010 3011 3013 3014 3015 3017 3018 3019 3020 3021 3022 3023 3024 3025 3026 3026 3027 3028 3029 3029 3030 3031 3031 3032 3033 3033 3034 3034 3034 3035 3035 3035 3035 3035 3036 3036 3036 3036 3036 3036
2982 2983 2984 2984 2985 2986 2986 2987 2988 2989 2989 2990 2991 2993 2994 2994 2995 2995 2996 2997 2998 2999 3000 3001 3002 3003 3004 3006 3007 3008 3010 3011 3012 3014 3015 3016 3017 3019 3019 3021 3022 3023 3024 3024 3025 3026 3027 3027 3028 3029 3029 3030 3031 3031 3032 3033 3033 3033 3034 3034 3034 3034 3034 3034 3034 3035 3035 3035 3035
2980 2981 2982 2983 2984 2984 2985 2985 2986 2987 2988 2989 2990 2991 2992 2993 2994 2994 2995 2995 2996 2997 2998 2999 3000 3002 3003 3004 3005 3007 3008 3009 3011 3012 3014 3015 3016 3017 3018 3019 3020 3021 3022 3023 3024 3025 3025 3026 3027 3028 3028 3029 3029 3030 3031 3031 3032 3032 3032 3033 3033 3033 3033 3034 3034 3034 3034 3034 3034
2978 2979 2980 2981 2982 2982 2983 2984 2984 2985 2986 2987 2988 2989 2990 2991 2992 2993 2993 2994 2995 2996 2997 2998 2999 3000 3001 3002 3004 3005 3006 3008 3009 3010 3012 3013 3014 3015 3017 3018 3019 3020 3021 3022 3023 3023 3024 3025 3025 3026 3027 3028 3028 3029 3029 3030 3030 3031 3031 3031 3032 3032 3032 3032 3033 3033 3033 3033 3033
2976 2977 2978 2979 2980 2981 2981 2982 2983 2984 2984 2985 2986 2987 2989 2989 2990 2991 2992 2993 2993 2994 2995 2996 2997 2998 2999 3001 3002 3004 3005 3006 3008 3009 3010 3011 3013 3014 3015 3016 3017 3018 3019 3020 3021 3022 3023 3024 3024 3025 3026 3026 3027 3028 3028 3029 3029 3029 3030 3030 3030 3030 3031 3031 3031 3032 3032 3032 3032
2974 2975 2976 2977 2978 2979 2980 2980 2981 2982 2983 2984 2985 2986 2987 2988 2989 2989 2990 2991 2992 2993 2993 2994 2996 2997 2998 2999 3000 3002 3003 3004 3006 3007 3009 3010 3011 3012 3014 3015 3016 3017 3018 3019 3020 3020 3021 3022 3023 3024 3024 3025 3026 3026 3027 3027 3028 3028 3029 3029 3029 3029 3029 3030 3030 3030 3031 3031 3031
2971 2972 2974 2975 2976 2977 2978 2979 2980 2981 2981 2982 2983 2984 2985 2986 2987 2988 2989 2989 2990 2991 2992 2993 2994 2995 2996 2998 2999 3000 3001 3003 3004 3005 3007 3008 3009 3011 3012 3013 3014 3015 3016 3017 3018 3019 3020 3021 3022 3022 3023 3024 3024 3025 3025 3026 3026 3027 3027 3028 3028 3028 3028 3029 3029 3029 3029 3030 3030
2969 2970 2972 2973 2974 2975 2976 2977 2978 2979 2980 2981 2981 2982 2983 2984 2985 2986 2987 2988 2989 2989 2990 2991 2992 2994 2994 2996 2997 2999 3000 3001 3002 3004 3005 3006 3008 3009 3010 3011 3013 3014 3015 3016 3017 3018 3019 3019 3020 3021 3022 3022 3023 3024 3024 3025 3025 3026 3026 3026 3027 3027 3027 3028 3028 3028 3028 3029 3029
2967 2968 2969 2971 2972 2973 2974 2975 2976 2977 2978 2979 2979 2980 2981 2982 2983 2984 2985 2986 2987 2988 2989 2989 2990 2992 2993 2994 2995 2997 2998 2999 3001 3002 3003 3005 3006 3007 3009 3010 3011 3012 3013 3014 3015 3016 3017 3018 3019 3019 3020 3021 3022 3022 3023 3024 3024 3024 3025 3025 3025 3026 3026 3026 3027 3027 3027 3028 3028
2964 2966 2967 2968 2970 2971 2973 2974 2974 2975 2976 2977 2978 2978 2979 2980 2981 2982 2984 2984 2985 2986 2987 2988 2989 2990 2991 2992 2994 2995 2996 2998 2999 3000 3002 3003 3004 3006 3007 3008 3009 3010 3012 3013 3014 3015 3016 3017 3017 3018 3019 3020 3020 3021 3022 3022 3023 3023 3024 3024 3024 3024 3025 3025 3025 3026 3026 3027 3027
2962 2963 2964 2966 2967 2969 2970 2972 2973 2974 2974 2975 2976 2977 2977 2978 2979 2980 2982 2983 2984 2984 2985 2986 2987 2988 2989 2991 2992 2993 2994 2996 2997 2999 3000 3001 3003 3004 3005 3007 3008 3009 3010 3011 3012 3013 3014 3015 3016 3017 3018 3018 3019 3019 3020 3021 3021 3022 3022 3023 3023 3023 3024 3024 3024 3025 3025 3026 3026